{"data":{"norad_id":47932,"epoch":"2026-09-20T04:18:38.429280Z","epoch_age_seconds":49675,"freshness":"FRESH","line1":"1 47932U 21022A   26263.17961145  .00004074  00000+0  19131-3 0  9997","line2":"2 47932  97.3754 156.4337 0004359 331.2136  28.8858 15.20167969305194","mean_motion":15.20167969,"eccentricity":0.0004359,"inclination_deg":97.3754,"raan_deg":156.4337,"arg_perigee_deg":331.2136,"mean_anomaly_deg":28.8858,"bstar":0.00019131,"rev_number":30519,"period_min":94.726374280025,"perigee_km":502.33300878502,"apogee_km":508.33401837876,"semimajor_km":6883.4705135819,"source":"CELESTRAK","updated_at":"2026-09-20T09:00:33.976613Z"}}